TOURFACTS.DK  
Stats and Facts from Tour de France.

Tour de France 2018 starts in 254 days
  Riders   Stages   Teams   Summits   Yearly  


 
Search by year

 2017 - St. 21:  14824 starters.
  5131 different riders.
  634 teams.
  2232 stages.
  454 restdays.
  439589.60 km.
  5653 abandonnees.


Top 3
Christopher Froome86:20:55
Rigoberto Uran86:21:49
Romain Bardet86:23:15
Warren Barguil169 pt.
Primoz Roglic80 pt.
Thomas De Gendt64 pt.
Michael Matthews359 pt.
André Greipel234 pt.
Edvald Boasson Hagen220 pt.
Simon Yates86:27:09
Louis Meintjes86:29:15
Emanuel Buchmann86:54:16
Facts from Tour de France 2014
  |   Stages.  |   Stage winners.  |   Days in yellow  |   Average speed.  |   Route.  |   Teams.  |   All riders.  |   Rookies.  |   Withdrawls.  |  

  |   GC.  |   Polka  |   Green  |   White  |   Summits. (In tour)  |   Summits. (Points)  |   Miscellaneous.  |  

Stage 17 on 23 - 07 - 2014
         Owning:    Vincenzo Nibali      Rafal Majka      Peter Sagan      Thibaut Pinot  

Pick a stage:  1 2 3 4 5 6 7 8 9 10 11 12 13 14 15 16 17 18 19 20 21
  Saint-GaudensSaint-Lary-Soulan-Pla-d´Adet | Dist: 124.50 km.
Cat: 1Col du PortillonESPJoaquim Rodriguez
10 points
 
Cat: 1Col de PeyresourdeBLRVasil Kiryienka
10 points
 
Cat: 1Col de Val Louron-AzetESPJoaquim Rodriguez
10 points
 
Cat: HPla d'AdetPOLRafal Majka
50 points
 

Average speed for all riders in stage:  32,008 km./hr.
    Place:Name:Team:Time:Km/h:
POLRafal MajkaRUSTinkoff Saxo03:35:23  +  00:00:00=34,682 
ITAGiovanni ViscontiESPMovistar Team03:35:52  +  00:00:29=34,605 
ITAVincenzo NibaliKAZAstana Pro Team03:36:09  +  00:00:46=34,559 
4 FRAJean-Christophe PeraudFRAAg2r La Mondiale03:36:09  +  00:00:46=34,559 
5 ITAAlessandro De MarchiITACannondale Pro Cycling03:36:12  +  00:00:49=34,551 
6 FRAPierre RollandFRATeam Europcar03:36:15  +  00:00:52=34,543 
7 LUXFränk SchleckUSATrek Factory Racing03:36:35  +  00:01:12=34,490 
8 NEDBauke MollemaNLDBelkin Pro Cycling03:36:35  +  00:01:12=34,490 
9 FRANicolas RocheRUSTinkoff Saxo03:36:48  +  00:01:25=34,456 
10 ESPAlejandro ValverdeESPMovistar Team03:36:58  +  00:01:35=34,429 
11 FRAThibaut PinotFRAFDJ.fr03:37:03  +  00:01:40=34,416 
12 FRARomain BardetFRAAg2r La Mondiale03:37:03  +  00:01:40=34,416 
13 USATejay Van GarderenUSABMC Racing Team03:37:03  +  00:01:40=34,416 
14 NEDLaurens ten DamNLDBelkin Pro Cycling03:37:13  +  00:01:50=34,390 
15 ESPJon Izaguirre InsaustiESPMovistar Team03:37:13  +  00:01:50=34,390 
16 ESPMikel NieveGBRSky Procycling03:37:24  +  00:02:01=34,361 
17 HRVKristijan DurasekITALampre-Merida03:37:28  +  00:02:05=34,350 
18 ESPHaimar ZubeldiaUSATrek Factory Racing03:37:57  +  00:02:34=34,274 
19 BELJurgen Van Den BroeckBELLotto-Belisol Team03:38:15  +  00:02:52=34,227 
20 FRAAmaël MoinardUSABMC Racing Team03:38:25  +  00:03:02=34,201 
21 ESPJesus HerradaESPMovistar Team03:39:02  +  00:03:39=34,104 
22 FRAJohn GadretESPMovistar Team03:39:17  +  00:03:54=34,066 
23 CZELeopold KönigDEUTeam NetApp – Endura03:39:17  +  00:03:54=34,066 
24 LUXBen GastauerFRAAg2r La Mondiale03:39:17  +  00:03:54=34,066 
25 SUIMarcel WyssCHEIAM Cycling03:39:17  +  00:03:54=34,066 
26 URSTanel KangertKAZAstana Pro Team03:40:25  +  00:05:02=33,890 
27 SVKPeter VelitsUSABMC Racing Team03:40:48  +  00:05:25=33,832 
28 NEDSteven KruijswijkNLDBelkin Pro Cycling03:41:03  +  00:05:40=33,793 
29 JPNChristopher HornerITALampre-Merida03:41:03  +  00:05:40=33,793 
30 RUSYury TrofimovRUSTeam Katusha03:41:03  +  00:05:40=33,793 
31 ESPJoaquim RodriguezRUSTeam Katusha03:41:17  +  00:05:54=33,758 
32 FRABrice FeilluFRABretagne - Séché Environnement03:41:35  +  00:06:12=33,712 
33 BELJan BakelantsBELOmega Pharma – Quick Step03:41:59  +  00:06:36=33,651 
34 FRASylvain ChavanelCHEIAM Cycling03:43:01  +  00:07:38=33,495 
35 AUSRichie PorteGBRSky Procycling03:43:01  +  00:07:38=33,495 
36 FRAArnold JeannessonFRAFDJ.fr03:43:29  +  00:08:06=33,425 
37 FRACyril GautierFRATeam Europcar03:44:50  +  00:09:27=33,225 
38 FRAThomas VoecklerFRATeam Europcar03:44:50  +  00:09:27=33,225 
39 USAAlex HowesUSAGarmin Sharp03:44:50  +  00:09:27=33,225 
40 BELJohan VansummerenUSAGarmin Sharp03:49:40  +  00:14:17=32,525 
41 SUIMichael SchärUSABMC Racing Team03:49:40  +  00:14:17=32,525 
42 AUSMichael RogersRUSTinkoff Saxo03:49:40  +  00:14:17=32,525 
43 NEDBram TankinkNLDBelkin Pro Cycling03:49:40  +  00:14:17=32,525 
44 USAPeter StetinaUSABMC Racing Team03:49:40  +  00:14:17=32,525 
45 SUISébastien ReichenbachCHEIAM Cycling03:49:40  +  00:14:17=32,525 
46 FRAPerrig QuemeneurFRATeam Europcar03:49:40  +  00:14:17=32,525 
47 USABenjamin KingUSAGarmin Sharp03:49:40  +  00:14:17=32,525 
48 CZEJan BártaDEUTeam NetApp – Endura03:49:40  +  00:14:17=32,525 
49 ESPLuis Angel MateFRACofidis – Solutions Crédits03:49:40  +  00:14:17=32,525 
50 FRANicolas EdetFRACofidis – Solutions Crédits03:49:40  +  00:14:17=32,525 
51 ITAMichele ScarponiKAZAstana Pro Team03:49:40  +  00:14:17=32,525 
52 PORNelson OliveiraITALampre-Merida03:49:40  +  00:14:17=32,525 
53 GERPaul VossDEUTeam NetApp – Endura03:49:40  +  00:14:17=32,525 
54 PORTiago PintoDEUTeam NetApp – Endura03:49:40  +  00:14:17=32,525 
55 FRAJérémy RoyFRAFDJ.fr03:49:40  +  00:14:17=32,525 
56 USAMatthew BuscheUSATrek Factory Racing03:49:40  +  00:14:17=32,525 
57 WALGeraint ThomasGBRSky Procycling03:49:40  +  00:14:17=32,525 
58 URSRein TaaramäeFRACofidis – Solutions Crédits03:49:40  +  00:14:17=32,525 
59 ESPDavid LopezGBRSky Procycling03:49:40  +  00:14:17=32,525 
60 JPNYukiya ArashiroFRATeam Europcar03:49:40  +  00:14:17=32,525 
61 POLBartosz HuzarskiDEUTeam NetApp – Endura03:49:40  +  00:14:17=32,525 
62 ESPJosé Joaquin RojasESPMovistar Team03:51:31  +  00:16:08=32,265 
63 FRARudy MolardFRACofidis – Solutions Crédits03:52:12  +  00:16:49=32,171 
64 FRACédric PineauFRAFDJ.fr03:52:12  +  00:16:49=32,171 
65 PORSergio PaulinhoRUSTinkoff Saxo03:52:12  +  00:16:49=32,171 
66 FRAMatthieu LadagnousFRAFDJ.fr03:52:12  +  00:16:49=32,171 
67 FRAAlexandre PichotFRATeam Europcar03:52:12  +  00:16:49=32,171 
68 FRAAnthony DelaplaceFRABretagne - Séché Environnement03:52:12  +  00:16:49=32,171 
69 ESPMarkel IrizarUSATrek Factory Racing03:52:12  +  00:16:49=32,171 
70 FRATony GallopinBELLotto-Belisol Team03:52:12  +  00:16:49=32,171 
71 FRAFlorian GuillouFRABretagne - Séché Environnement03:52:12  +  00:16:49=32,171 
72 ESPBeñat IntxaustiESPMovistar Team03:52:12  +  00:16:49=32,171 
73 NEDTom DumoulinNLDTeam Giant - Shimano03:52:12  +  00:16:49=32,171 
74 COLJosé SerpaITALampre-Merida03:52:12  +  00:16:49=32,171 
75 KAZMaxim IglinskiyKAZAstana Pro Team03:52:23  +  00:17:00=32,145 
76 BLRVasil KiryienkaGBRSky Procycling03:52:29  +  00:17:06=32,131 
77 ITAMatteo MontagutiFRAAg2r La Mondiale03:55:00  +  00:19:37=31,787 
78 FRAArnaud GérardFRABretagne - Séché Environnement03:55:00  +  00:19:37=31,787 
79 CANChristian MeierAUSOrica - GreenEDGE03:55:00  +  00:19:37=31,787 
80 FRABlel KadriFRAAg2r La Mondiale03:55:00  +  00:19:37=31,787 
81 BELGreg Van AvermaetUSABMC Racing Team03:55:00  +  00:19:37=31,787 
82 SUIJakob FuglsangKAZAstana Pro Team03:57:49  +  00:22:26=31,411 
83 KAZDmitriy GruzdevKAZAstana Pro Team03:58:15  +  00:22:52=31,354 
84 UKRAndriy GrivkoKAZAstana Pro Team03:58:15  +  00:22:52=31,354 
85 GERTony MartinBELOmega Pharma – Quick Step03:58:55  +  00:23:32=31,266 
86 GERJens VoigtUSATrek Factory Racing03:58:55  +  00:23:32=31,266 
87 NEDKoen De KortNLDTeam Giant - Shimano03:58:55  +  00:23:32=31,266 
88 AUTBernhard EiselGBRSky Procycling03:58:55  +  00:23:32=31,266 
89 SUIMartin ElmigerCHEIAM Cycling03:58:55  +  00:23:32=31,266 
90 BELJens KeukeleireAUSOrica - GreenEDGE03:58:55  +  00:23:32=31,266 
91 ITAMarco MarcatoITACannondale Pro Cycling03:58:55  +  00:23:32=31,266 
92 ITAFabio SabatiniITACannondale Pro Cycling03:58:55  +  00:23:32=31,266 
93 FRASébastien MinardFRAAg2r La Mondiale03:58:55  +  00:23:32=31,266 
94 FRAFlorian VachonFRABretagne - Séché Environnement03:58:55  +  00:23:32=31,266 
95 SUIGregory RastUSATrek Factory Racing03:58:55  +  00:23:32=31,266 
96 NEDLars BoomNLDBelkin Pro Cycling03:58:55  +  00:23:32=31,266 
97 NEDRoy CurversNLDTeam Giant - Shimano03:58:55  +  00:23:32=31,266 
98 DENLars BakBELLotto-Belisol Team03:58:55  +  00:23:32=31,266 
99 GERAndreas SchillingerDEUTeam NetApp – Endura03:58:55  +  00:23:32=31,266 
100 SUIMichael AlbasiniAUSOrica - GreenEDGE03:58:55  +  00:23:32=31,266 
101 AUSLuke DurbridgeAUSOrica - GreenEDGE03:58:55  +  00:23:32=31,266 
102 DENMichael MørkøvRUSTinkoff Saxo03:58:55  +  00:23:32=31,266 
103 FRAKévin RezaFRATeam Europcar03:58:55  +  00:23:32=31,266 
104 BELMaarten WynantsNLDBelkin Pro Cycling03:58:55  +  00:23:32=31,266 
105 ESPImanol ErvitiESPMovistar Team03:58:55  +  00:23:32=31,266 
106 BELSep VanmarckeNLDBelkin Pro Cycling03:58:55  +  00:23:32=31,266 
107 ITAMatteo TosattoRUSTinkoff Saxo03:58:55  +  00:23:32=31,266 
108 AUSSimon ClarkeAUSOrica - GreenEDGE03:58:55  +  00:23:32=31,266 
109 NEDTom LeezerNLDBelkin Pro Cycling03:58:55  +  00:23:32=31,266 
110 FRAJérôme PineauCHEIAM Cycling03:58:55  +  00:23:32=31,266 
111 POLMaciej BodnarITACannondale Pro Cycling03:58:55  +  00:23:32=31,266 
112 GERJohn DegenkolbNLDTeam Giant - Shimano03:58:55  +  00:23:32=31,266 
113 ITADaniele BennatiRUSTinkoff Saxo03:59:03  +  00:23:40=31,249 
114 ITADaniel OssUSABMC Racing Team03:59:03  +  00:23:40=31,249 
115 SVKPeter SaganITACannondale Pro Cycling03:59:05  +  00:23:42=31,244 
116 FRAJean-Marc MarinoITACannondale Pro Cycling03:59:15  +  00:23:52=31,223 
117 FRAYohann GèneFRATeam Europcar03:59:24  +  00:24:01=31,203 
118 NEDAlbert TimmerNLDTeam Giant - Shimano03:59:37  +  00:24:14=31,175 
119 FRABryan CoquardFRATeam Europcar03:59:37  +  00:24:14=31,175 
120 BELJürgen RoelandtsBELLotto-Belisol Team04:00:14  +  00:24:51=31,095 
121 GERRoger KlugeCHEIAM Cycling04:00:14  +  00:24:51=31,095 
122 AUSZakkari DempsterDEUTeam NetApp – Endura04:00:14  +  00:24:51=31,095 
123 ITAAlessandro VanottiKAZAstana Pro Team04:00:56  +  00:25:33=31,004 
124 ESPRubén PlazaESPMovistar Team04:01:06  +  00:25:43=30,983 
125 FRAChristophe RiblonFRAAg2r La Mondiale04:01:06  +  00:25:43=30,983 
126 POLMichal GolasBELOmega Pharma – Quick Step04:01:22  +  00:25:59=30,949 
127 NEDNiki TerpstraBELOmega Pharma – Quick Step04:01:22  +  00:25:59=30,949 
128 POLMichal KwiatkowskiBELOmega Pharma – Quick Step04:01:22  +  00:25:59=30,949 
129 PORJosé João PimentaDEUTeam NetApp – Endura04:01:22  +  00:25:59=30,949 
130 USADanny PateGBRSky Procycling04:01:22  +  00:25:59=30,949 
131 SLOKristjan KorenITACannondale Pro Cycling04:01:39  +  00:26:16=30,912 
132 URSRamunas NavardauskasUSAGarmin Sharp04:02:13  +  00:26:50=30,840 
133 ITADavide CimolaiITALampre-Merida04:02:13  +  00:26:50=30,840 
134 CANSvein TuftAUSOrica - GreenEDGE04:03:09  +  00:27:46=30,722 
135 GERAndré GreipelBELLotto-Belisol Team04:03:09  +  00:27:46=30,722 
136 NEDTom-Jelte SlagterUSAGarmin Sharp04:03:09  +  00:27:46=30,722 
137 FRAMickael DelageFRAFDJ.fr04:03:09  +  00:27:46=30,722 
138 AUSAdam HansenBELLotto-Belisol Team04:03:09  +  00:27:46=30,722 
139 FRAArmindo FonsecaFRABretagne - Séché Environnement04:03:09  +  00:27:46=30,722 
140 ITAElia VivianiITACannondale Pro Cycling04:03:09  +  00:27:46=30,722 
141 FRABenoît JarrierFRABretagne - Séché Environnement04:03:09  +  00:27:46=30,722 
142 AUSHeinrich HausslerCHEIAM Cycling04:03:09  +  00:27:46=30,722 
143 NEDLieuwe WestraKAZAstana Pro Team04:03:09  +  00:27:46=30,722 
144 RUSVladimir IsaichevRUSTeam Katusha04:03:09  +  00:27:46=30,722 
145 NZLJack BauerUSAGarmin Sharp04:03:09  +  00:27:46=30,722 
146 ITAMatteo TrentinBELOmega Pharma – Quick Step04:03:09  +  00:27:46=30,722 
147 ITAAlessandro PetacchiBELOmega Pharma – Quick Step04:03:09  +  00:27:46=30,722 
148 FRAJulien SimonFRACofidis – Solutions Crédits04:03:09  +  00:27:46=30,722 
149 FRAJean-Marc BideauFRABretagne - Séché Environnement04:03:09  +  00:27:46=30,722 
150 FRAArnaud DémareFRAFDJ.fr04:03:09  +  00:27:46=30,722 
151 URSGatis SmukulisRUSTeam Katusha04:03:09  +  00:27:46=30,722 
152 AUSMark RenshawBELOmega Pharma – Quick Step04:03:09  +  00:27:46=30,722 
153 NEDSebastian LangeveldUSAGarmin Sharp04:03:09  +  00:27:46=30,722 
154 FRAMickaël CherelFRAAg2r La Mondiale04:03:09  +  00:27:46=30,722 
155 NORAlexander KristoffRUSTeam Katusha04:03:09  +  00:27:46=30,722 
156 ITALuca PaoliniRUSTeam Katusha04:03:09  +  00:27:46=30,722 
157 FRAWilliam BonnetFRAFDJ.fr04:03:09  +  00:27:46=30,722 
158 FRARomain FeilluFRABretagne - Séché Environnement04:03:09  +  00:27:46=30,722 
159 CHNCheng JiNLDTeam Giant - Shimano04:03:09  +  00:27:46=30,722 
160 GERMarcus BurghardtUSABMC Racing Team04:03:09  +  00:27:46=30,722 
161 FRASamuel DumoulinFRAAg2r La Mondiale04:03:17  +  00:27:54=30,705 
162 GERMarcel SiebergBELLotto-Belisol Team04:03:19  +  00:27:56=30,701 
163 FRACyril LemoineFRACofidis – Solutions Crédits04:03:19  +  00:27:56=30,701 
164 FRAAdrien PetitFRACofidis – Solutions Crédits04:03:19  +  00:27:56=30,701 
165 NEDTom VeelersNLDTeam Giant - Shimano04:04:18  +  00:28:55=30,577 
166 GERMarcel KittelNLDTeam Giant - Shimano04:04:18  +  00:28:55=30,577 

Withdrawls: 3
 
Rider
Team
Reason
28  SLOSimon SpilakRUSTeam KatushaDid not finish
181  AUSSimon GerransAUSOrica - GreenEDGEDid not start
195  SUIReto HollensteinCHEIAM CyclingDid not start

Todays birthdays.

1886  Jean Meziere
1887  Pierre Herbette
1887  Octave Lapize
1898  Felix Manthey
1920  René Biever
1920  Georges Ramoulux
1928  René Marigil
1940  Jean-Pierre Genet
1944  Giannino Bianco
1945  Eddy Cael
1950  Bert Pronk
1954  Marc Dierickx
1961  Chris Carmichael
1973  Levi Leipheimer